Regional Weather Roundup
Issued by NWS

Home | Current Version | Previous Version | Text Only | Print | Product List | Glossary Off
Versions: 1 2 3 4 5 6 7 8 9 10 11 12 13 14 15 16 17 18 19 20 21 22 23 24 25 26 27 28 29 30 31 32 33 34 35 36 37 38 39 40 41 42 43 44 45 46 47 48 49 50

000
ASUS43 KLSX 271107
RWRMO

WEATHER SUMMARY FOR MISSOURI
NATIONAL WEATHER SERVICE SPRINGFIELD MO
500 AM CST MON FEB 27 2017

NOTE: "FAIR" INDICATES FEW OR NO CLOUDS BELOW 12,000 FEET WITH NO
       SIGNIFICANT WEATHER AND/OR OBSTRUCTIONS TO VISIBILITY.
       CURRENT SKY AND/OR WEATHER CONDITIONS ARE NOT AVAILABLE FOR
       CHILLICOTHE AND FARMINGTON.

MOZ001>031-035>038-043-044-053-054-271200-
...NORTHERN AND WESTERN MISSOURI...

CITY           SKY/WX    TMP DP  RH WIND       PRES   REMARKS
KANSAS CTY INT CLEAR     28  28 100 S8        30.02S FOG     WCI  20
KANSAS C DTWN  FOG       30  29  96 CALM      30.03S VSB 1/4
LEE`S SUMMIT   FOG       28  28 100 SE3       30.03S VSB 3/4
ST JOSEPH      FOG       26  24  92 S3        30.03R VSB<1/4
CHILLICOTHE      N/A     25  24  96 CALM      30.06R
KIRKSVILLE     FOG       24  23  96 SE6       30.05S VSB 1/4 WCI  17

$$
MOZ066>068-077>081-088>096-101>105-271200-
...SOUTHWEST MISSOURI...

CITY           SKY/WX    TMP DP  RH WIND       PRES   REMARKS
SPRINGFIELD    CLEAR     35  26  69 SE9       30.01R WCI  28
JOPLIN         CLEAR     34  28  79 SE6       30.01R WCI  29
BRANSON        CLEAR     37  30  75 CALM      30.04R

$$
MOZ032>034-039>042-045>050-055>058-069>072-271200-
...CENTRAL MISSOURI...

CITY           SKY/WX    TMP DP  RH WIND       PRES   REMARKS
COLUMBIA       CLEAR     33  32  96 E8        30.05S WCI  26
JEFFERSON CITY PTCLDY    30  28  92 CALM      30.07S FOG
ROLLA          CLEAR     31  28  89 SE5       30.04R WCI  26
SEDALIA        FOG       29  27  92 CALM      30.06R VSB 1/4
WHITEMAN AFB   FOG       27  27 100 SE5       30.03S VSB 0   WCI  22
WARRENSBURG    FOG       27  27 100 CALM      30.04S VSB 1/4
OSAGE BEACH    CLEAR     29  28  96 CALM      30.06R FOG

$$
MOZ051-052-059>065-271200-
...EAST CENTRAL MISSOURI...

CITY           SKY/WX    TMP DP  RH WIND       PRES   REMARKS
ST LOUIS INTL  MOCLDY    40  35  83 E5        30.10R
SPIRIT OF STL  CLOUDY    32  31  96 CALM      30.09R FOG
ST CHARLES     CLOUDY    37  35  92 E7        30.10R

$$
MOZ072>076-082>087-097>100-106>115-271200-
...SOUTH CENTRAL AND SOUTHEAST MISSOURI...

CITY           SKY/WX    TMP DP  RH WIND       PRES   REMARKS
CAPE GIRARDEAU CLOUDY    45  40  82 SE5       30.11R
FARMINGTON     CLEAR     38  33  82 CALM      30.09R
POPLAR BLUFF   CLOUDY    47  43  86 CALM      30.08R
WEST PLAINS    CLEAR     33  26  75 CALM      30.06R

$$



USA.gov is the U.S. government's official web portal to all federal, state and local government web resources and services.